Location: Azenweiler
(47.8027°N, 9.4096°E)
Time: 06:52:45
(UTC+00:00)

Cosmos 1626 Rocket - Pass Details

Date: 10 December 2025
Orbit: 596 x 625 km, 82.5° (Epoch: 13 January)

Event Time Altitude Azimuth Distance (km) Brightness Sun altitude
Rises 05:49:48 0° 202° (SSW) 2,893 7.0 -11.3°
Reaches altitude 10° 05:52:05 10° 207° (SSW) 1,990 6.1 -10.9°
Maximum altitude 05:56:22 50° 284° (WNW) 800 3.7 -10.3°
Drops below altitude 10° 06:00:40 10° 360° (N) 1,992 5.9 -9.6°
Sets 06:02:57 0° 5° (N) 2,898 6.8 -9.2°
